[[{"header":{"parameterUnit":"m.s-1","parameterCategory":1,"la1":30.2991,"la2":30.254,"lo1":-89.0895,"lo2":-89.0444,"dy":0.0017,"dx":0.0017,"nx":28,"ny":28,"refTime":"2025-04-19T09:00:00:Z","depth":0,"parameterNumber":2,"parameterNumberName":"U-component_of_WINDS"},"data":[0,0,0,0,0,0,0,0,0,0,0,0,0,0,0,0,0,0,0,0,0,0,0,0,0,0,0,0,0,0,0,0,0,0,0,0,0,0,0,0,0,0,0,0,0,0,0,0,0,0,0,0,0,0,0,0,0,0,-3.4296,-3.4298,0,-3.4432,-3.4434,-3.4436,-3.4457,-3.4456,-3.4455,-3.4453,-3.4592,-3.4597,-3.4601,0,0,0,0,0,0,0,0,0,0,0,0,0,-3.4055,-3.4059,-3.4296,-3.4298,-3.43,-3.4432,-3.4434,-3.4436,-3.4457,-3.4456,-3.4454,-3.4453,-3.459,-3.4596,-3.4602,0,0,0,0,0,0,0,0,0,0,0,0,0,-3.4172,-3.4061,-3.4296,-3.4326,-3.433,-3.4432,-3.4434,-3.4436,-3.4458,-3.4456,-3.4454,-3.4452,-3.4589,-3.4596,-3.4603,-3.4683,0,0,-3.4625,-3.4628,0,0,0,0,0,0,0,0,-3.4165,-3.4181,-3.432,-3.4324,-3.4329,-3.4426,-3.44,-3.4519,-3.4458,-3.4409,-3.4453,-3.4451,-3.4538,-3.4549,-3.4579,-3.469,-3.4696,-3.4625,-3.463,-3.4633,-3.4635,0,0,0,0,0,0,0,-3.4157,-3.4175,-3.435,-3.4322,-3.4328,-3.4333,-3.4348,-3.4422,-3.4482,-3.4413,-3.4415,-3.4431,-3.454,-3.4572,-3.4582,-3.4698,-3.4625,-3.4632,-3.4636,-3.4639,-3.4881,-3.4883,0,0,0,0,0,0,-3.4144,-3.4168,-3.4346,-3.4354,-3.4241,-3.4339,-3.4355,-3.4397,-3.4481,-3.4493,-3.4432,-3.4432,-3.456,-3.4574,-3.4587,-3.4686,-3.4633,-3.464,-3.4644,-3.4879,-3.4881,-3.4884,0,0,0,0,0,0,-3.4138,-3.4159,-3.434,-3.4262,-3.4285,-3.4345,-3.4391,-3.44,-3.4432,-3.4496,-3.4506,-3.4454,-3.456,-3.4577,-3.4659,-3.4691,-3.4643,-3.4649,-3.4876,-3.488,-3.4883,-3.4885,0,0,0,0,0,0,-3.4131,-3.4157,-3.4188,-3.4262,-3.4289,-3.441,-3.4393,-3.4404,-3.4444,-3.4444,-3.4519,-3.4529,-3.4559,-3.4648,-3.4666,-3.47,-3.4655,-3.4874,-3.4878,-3.4882,-3.4882,-3.4888,-3.4893,0,0,0,0,0,-3.4123,-3.4184,-3.419,-3.4211,-3.433,-3.4412,-3.4427,-3.4461,-3.4447,-3.4479,-3.452,-3.4527,-3.4685,-3.4656,-3.4677,-3.4714,-3.4872,-3.4877,-3.4881,-3.488,-3.4887,-3.4893,0,0,0,0,0,0,-3.4112,-3.4194,-3.4202,-3.4289,-3.4343,-3.4415,-3.4456,-3.4467,-3.4527,-3.4524,-3.4564,-3.458,-3.466,-3.4696,-3.4662,-3.4796,-3.4777,-3.4786,-3.4769,-3.4776,-3.4782,-3.477,-3.4661,0,0,0,0,0,-3.4119,-3.4179,-3.4248,-3.4318,-3.4345,-3.4396,-3.4433,-3.4455,-3.4512,-3.4535,-3.4583,-3.4638,-3.4701,-3.4741,-3.4802,-3.4888,-3.4904,-3.4924,-3.4929,-3.4933,-3.494,-3.4987,-3.4996,-3.4899,-3.4899,-3.4899,0,0,-3.4136,-3.4188,-3.4224,-3.4317,-3.4362,-3.4423,-3.4415,-3.448,-3.4525,-3.4545,-3.4625,-3.4662,-3.4727,-3.4811,-3.4851,-3.4843,-3.497,-3.4939,-3.4942,-3.4946,-3.4993,-3.5002,-3.501,-3.4902,-3.4902,-3.4901,0,0,-3.4196,-3.4243,-3.4306,-3.4351,-3.4419,-3.4452,-3.4467,-3.4538,-3.4563,-3.4645,-3.4661,-3.4716,-3.4822,-3.4868,-3.4905,-3.4984,-3.4992,-3.5003,-3.5029,-3.5075,-3.5082,-3.5089,-3.5116,-3.5125,-3.5009,-3.501,-3.501,0,-3.4208,-3.43,-3.4336,-3.4401,-3.4441,-3.4463,-3.4526,-3.4569,-3.4653,-3.468,-3.4671,-3.4805,-3.4851,-3.4945,-3.4965,-3.4995,-3.5012,-3.4993,-3.5078,-3.5086,-3.5093,-3.5119,-3.5129,-3.501,-3.501,-3.501,-3.501,0,-3.4311,-3.4375,-3.4418,-3.4498,-3.4544,-3.4608,-3.4653,-3.4695,-3.4713,-3.4747,-3.483,-3.4885,-3.4957,-3.4982,-3.5,-3.5079,-3.5072,-3.5071,-3.5052,-3.5102,-3.5127,-3.5137,-3.5011,-3.5011,-3.5011,-3.5011,0,0,-3.4367,-3.4467,-3.4482,-3.4519,-3.4596,-3.4646,-3.4711,-3.4782,-3.4816,-3.4874,-3.4929,-3.5019,-3.5018,-3.506,-3.5084,-3.5124,-3.5182,-3.5117,-3.512,-3.5126,-3.5272,-3.5271,-3.5282,-3.5189,-3.5191,-3.5193,-3.5266,0,-3.4435,-3.4551,-3.4586,-3.4683,-3.4742,-3.4764,-3.482,-3.4873,-3.4908,-3.4963,-3.5001,-3.5064,-3.5058,-3.5083,-3.5125,-3.5166,-3.5211,-3.5161,-3.5239,-3.5241,-3.522,-3.5296,-3.5296,-3.5362,-3.5276,-3.5277,-3.5279,0,-3.453,-3.459,-3.4692,-3.4762,-3.4788,-3.4838,-3.4905,-3.4958,-3.5019,-3.5041,-3.5089,-3.5109,-3.5177,-3.5157,-3.5251,-3.5216,-3.5251,-3.5276,-3.5279,-3.5286,-3.5261,-3.5303,-3.5384,-3.5393,-3.5295,-3.5293,-3.5292,0,-3.4559,-3.4665,-3.474,-3.4771,-3.4854,-3.4888,-3.4925,-3.4984,-3.5024,-3.5084,-3.511,-3.5177,-3.5213,-3.5264,-3.5302,-3.5284,-3.5393,-3.5375,-3.5412,-3.5411,-3.5432,-3.543,-3.5518,-3.5457,-3.5457,-3.5457,-3.5457,0,-3.4631,-3.4692,-3.4754,-3.48,-3.487,-3.4909,-3.4977,-3.5015,-3.5067,-3.5121,-3.5144,-3.5194,-3.5242,-3.5298,-3.5328,-3.5401,-3.5417,-3.5436,-3.5443,-3.5433,-3.5431,-3.5455,-3.545,-3.5459,-3.5459,-3.5458,-3.5458,0,-3.4674,-3.4718,-3.48,-3.4872,-3.4892,-3.494,-3.5002,-3.5047,-3.5083,-3.515,-3.5168,-3.5224,-3.5291,-3.5335,-3.542,-3.5441,-3.552,-3.5526,-3.5499,-3.5502,-3.5535,-3.5531,-3.564,-3.5656,-3.5586,-3.5587,-3.5587,0,-3.4716,-3.4764,-3.4841,-3.4878,-3.4915,-3.4975,-3.5016,-3.5057,-3.5099,-3.5173,-3.5209,-3.5278,-3.5335,-3.5441,-3.5489,-3.5555,-3.5562,-3.5596,-3.5572,-3.556,-3.5561,-3.5557,-3.5561,-3.5599,-3.56,-3.56,-3.5601,0,-3.4785,-3.4805,-3.4863,-3.493,-3.4978,-3.5033,-3.5087,-3.5116,-3.5167,-3.5213,-3.5282,-3.5326,-3.5414,-3.5481,-3.5552,-3.5589,-3.5603,-3.5608,-3.562,-3.5609,-3.5591,-3.56,-3.5508,-3.5605,-3.5605,-3.5604,-3.5604,-3.5604,-3.4828,-3.4872,-3.4932,-3.4997,-3.5042,-3.5092,-3.5138,-3.518,-3.5238,-3.5312,-3.5333,-3.5405,-3.5465,-3.5561,-3.5599,-3.5656,-3.5652,-3.5669,-3.5673,-3.5676,-3.5676,-3.5583,-3.5669,-3.5669,-3.5669,-3.5669,-3.5669,0,-3.4898,-3.4938,-3.4997,-3.5072,-3.5123,-3.5133,-3.5193,-3.5235,-3.5298,-3.5352,-3.5408,-3.5487,-3.5553,-3.5607,-3.5675,-3.571,-3.5718,-3.5726,-3.5723,-3.5731,-3.5676,-3.5659,-3.5718,-3.5718,-3.5718,-3.5718,-3.5718,-3.5718,-3.494,-3.5013,-3.504,-3.5136,-3.5176,-3.5246,-3.528,-3.5326,-3.537,-3.5457,-3.5512,-3.5547,-3.5601,-3.5673,-3.5734,-3.5748,-3.5771,-3.5778,-3.5793,-3.5741,-3.5735,-3.573,-3.5713,-3.5783,-3.5783,-3.5843,-3.5843,-3.5844]},{"header":{"parameterUnit":"m.s-1","parameterCategory":1,"la1":30.2991,"la2":30.254,"lo1":-89.0895,"lo2":-89.0444,"dy":0.0017,"dx":0.0017,"nx":28,"ny":28,"refTime":"2025-04-19T09:00:00:Z","depth":0,"parameterNumber":3,"parameterNumberName":"V-component_of_WINDS"},"data":[0,0,0,0,0,0,0,0,0,0,0,0,0,0,0,0,0,0,0,0,0,0,0,0,0,0,0,0,0,0,0,0,0,0,0,0,0,0,0,0,0,0,0,0,0,0,0,0,0,0,0,0,0,0,0,0,0,0,3.3864,3.3864,0,3.39,3.39,3.3901,3.3865,3.3863,3.3862,3.386,3.3895,3.3897,3.3899,0,0,0,0,0,0,0,0,0,0,0,0,0,3.3763,3.3765,3.3864,3.3864,3.3865,3.39,3.39,3.3901,3.3865,3.3863,3.3861,3.386,3.3894,3.3897,3.39,0,0,0,0,0,0,0,0,0,0,0,0,0,3.3803,3.3765,3.3864,3.3851,3.385,3.39,3.39,3.3901,3.3865,3.3863,3.3861,3.3859,3.3893,3.3897,3.39,3.3963,0,0,3.391,3.3912,0,0,0,0,0,0,0,0,3.3801,3.3807,3.3853,3.3852,3.3851,3.3876,3.3877,3.3922,3.3866,3.386,3.386,3.3858,3.389,3.3894,3.3905,3.3964,3.3966,3.391,3.3912,3.3914,3.3915,0,0,0,0,0,0,0,3.3798,3.3805,3.3878,3.3853,3.3853,3.3843,3.3847,3.3885,3.3886,3.386,3.3857,3.3862,3.3889,3.3902,3.3905,3.3966,3.391,3.3913,3.3915,3.3917,3.408,3.4082,0,0,0,0,0,0,3.3797,3.3803,3.3877,3.3879,3.3821,3.3847,3.3851,3.387,3.3886,3.3886,3.3864,3.386,3.3897,3.3902,3.3906,3.3982,3.3914,3.3917,3.3919,3.4078,3.4081,3.4083,0,0,0,0,0,0,3.3795,3.3804,3.3875,3.3841,3.3849,3.3851,3.3873,3.3872,3.3884,3.3889,3.3888,3.3877,3.3896,3.3902,3.3949,3.3982,3.3919,3.3922,3.4075,3.4079,3.4082,3.4132,0,0,0,0,0,0,3.3792,3.3804,3.3828,3.3841,3.3851,3.3918,3.3875,3.3874,3.389,3.3886,3.3901,3.3901,3.3894,3.3945,3.3953,3.3986,3.3924,3.4072,3.4077,3.4081,3.4128,3.4137,3.4145,0,0,0,0,0,3.3789,3.384,3.3829,3.3838,3.3881,3.392,3.3926,3.3918,3.3893,3.3917,3.392,3.39,3.3978,3.395,3.3959,3.3993,3.407,3.4075,3.4081,3.4124,3.4135,3.4145,0,0,0,0,0,0,3.3829,3.3842,3.383,3.3887,3.3903,3.3914,3.3944,3.393,3.3953,3.3948,3.3936,3.394,3.3991,3.3997,3.3966,3.4055,3.402,3.4027,3.405,3.406,3.4069,3.4066,3.3927,0,0,0,0,0,3.3845,3.3876,3.3885,3.3934,3.3943,3.3943,3.3959,3.3952,3.3968,3.3974,3.3981,3.3996,3.4024,3.4043,3.4068,3.4129,3.4131,3.4157,3.4165,3.4172,3.4179,3.4212,3.4223,3.41,3.41,3.41,0,0,3.3877,3.3888,3.3908,3.3943,3.3954,3.3987,3.3949,3.3984,3.4008,3.3979,3.4025,3.4031,3.4047,3.4102,3.4126,3.4108,3.4213,3.4179,3.4185,3.4187,3.4218,3.423,3.424,3.4104,3.4103,3.4103,0,0,3.3953,3.3964,3.4007,3.402,3.4038,3.4038,3.4048,3.4062,3.4065,3.4111,3.409,3.4118,3.4166,3.4179,3.4192,3.4274,3.4256,3.4282,3.4328,3.436,3.4369,3.4378,3.4407,3.4418,3.4288,3.4289,3.4289,0,3.3991,3.4039,3.403,3.4068,3.4084,3.4061,3.4104,3.4116,3.4142,3.4153,3.4133,3.4194,3.4203,3.4261,3.4281,3.4292,3.4303,3.428,3.4369,3.4377,3.4385,3.4413,3.4424,3.4292,3.4291,3.4291,3.4291,0,3.4085,3.4119,3.4151,3.4177,3.4197,3.4237,3.4234,3.4255,3.4246,3.4248,3.4295,3.4306,3.4334,3.4347,3.4338,3.4403,3.4392,3.4371,3.4334,3.44,3.4426,3.4437,3.4296,3.4295,3.4294,3.4293,0,0,3.4186,3.4208,3.422,3.4232,3.4251,3.4277,3.4316,3.4344,3.4363,3.4381,3.4414,3.4455,3.4436,3.4451,3.4443,3.4472,3.4536,3.4447,3.4447,3.4463,3.4609,3.4625,3.4638,3.4525,3.4527,3.4529,3.4608,0,3.4262,3.4331,3.4325,3.439,3.4421,3.44,3.4434,3.4449,3.4452,3.4479,3.4481,3.4511,3.4483,3.4492,3.4519,3.4523,3.4565,3.4517,3.4555,3.4556,3.4552,3.4651,3.4668,3.4743,3.4618,3.462,3.4621,0,3.4361,3.4384,3.4452,3.4468,3.448,3.4511,3.4537,3.4563,3.458,3.4579,3.4597,3.4585,3.4624,3.4587,3.4641,3.4608,3.4623,3.4628,3.463,3.4633,3.4593,3.4657,3.4766,3.4777,3.4637,3.4636,3.4634,0,3.4428,3.4477,3.4524,3.4535,3.4554,3.4576,3.4584,3.4599,3.4617,3.4639,3.4651,3.4677,3.4691,3.4712,3.4707,3.4681,3.4762,3.4725,3.4763,3.4764,3.4781,3.478,3.4894,3.4791,3.4791,3.4791,3.479,0,3.4514,3.4557,3.4555,3.4584,3.4631,3.4623,3.467,3.4676,3.469,3.472,3.4703,3.4731,3.4723,3.4751,3.4747,3.4793,3.4799,3.48,3.4799,3.4802,3.4802,3.4811,3.4806,3.4794,3.4793,3.4792,3.4792,0,3.4598,3.4598,3.4648,3.4662,3.4667,3.4701,3.4713,3.474,3.4742,3.478,3.4788,3.479,3.4822,3.482,3.4855,3.4853,3.4909,3.4902,3.4904,3.4902,3.4941,3.4937,3.5065,3.5081,3.4967,3.4969,3.4969,0,3.4653,3.4685,3.4703,3.4722,3.4733,3.4764,3.4782,3.4776,3.4795,3.4818,3.4842,3.4873,3.4897,3.4949,3.4954,3.4981,3.4974,3.5017,3.4978,3.498,3.4975,3.4973,3.4977,3.5024,3.5026,3.5027,3.5028,0,3.475,3.4749,3.4776,3.4804,3.4827,3.4848,3.4867,3.4884,3.4879,3.4902,3.4935,3.4954,3.4991,3.5022,3.5048,3.5056,3.5042,3.504,3.505,3.5054,3.5054,3.5055,3.4925,3.5037,3.5036,3.5035,3.5035,3.5034,3.4822,3.485,3.4867,3.4898,3.4912,3.4931,3.4958,3.4963,3.4991,3.5021,3.5016,3.5053,3.5069,3.5103,3.5114,3.5143,3.5127,3.5142,3.5146,3.515,3.5155,3.505,3.5148,3.5147,3.5147,3.5147,3.5147,0,3.4919,3.4929,3.4958,3.4986,3.5011,3.4995,3.5016,3.5038,3.5071,3.5088,3.5112,3.515,3.518,3.5188,3.5216,3.5238,3.5232,3.5246,3.5244,3.5246,3.5167,3.5155,3.525,3.525,3.525,3.525,3.525,3.525,3.4972,3.502,3.5021,3.5075,3.5084,3.5121,3.5135,3.5152,3.5165,3.5209,3.5234,3.5239,3.5252,3.5282,3.5309,3.531,3.5321,3.5338,3.5337,3.5262,3.5252,3.5242,3.5231,3.5341,3.5341,3.5414,3.5415,3.5415]}]]